Home > Weather > Rome > Past weeks

Flag for Italy Past Weather in Rome, Italy — Yesterday and Last 2 Weeks

Now
72 °F

Clear.


Feels Like: 72 °F
Forecast: 67 / 89 °F
Wind: 2 mph from North

Location: Rome / Ciampino

Current Time: Jul 27, 2016 at 5:45:01 AM

Latest Report: Jul 27, 2016 at 4:50 AM


Visibility: 10 mi

Pressure: 29.95 "Hg

Humidity: 78%

Dew Point: 64 °F

Location of RomeLocation

Past Weather in Rome — Graph

°F

Rome Temperature Yesterday

Maximum temperature yesterday: 90 °F (at 1:20 PM)
Minimum temperature yesterday: 66 °F (at 1:50 AM)
Average temperature yesterday: 77 °F

High & Low Weather Summary for the Past Weeks

 TemperatureHumidityPressure
High93 °F (Jul 12, 12:50 PM)89% (Jul 25, 6:20 PM)30.15 "Hg (Jul 25, 6:20 PM)
Low59 °F (Jul 17, 5:50 AM)18% (Jul 21, 2:50 PM)29.53 "Hg (Jul 15, 3:50 AM)
Average77 °F49%29.98 "Hg
* Reported Jul 12 4:20 AM — Jul 27 4:20 AM, Rome, Weather by CustomWeather, © 2016

Note: Actual official high and low records may vary slightly from our data, if they occured in-between our weather recording intervals... More about our weather records

Advertising

Rome Weather History for the Previous 24 Hours

Scroll right to see more
 ConditionsComfort  
Time TempWeatherWind HumidityBarometerVisibility
4:20 AM
Wed, Jul 27
70 °FClear.1 mph78%29.95 "Hg10 mi
3:50 AM72 °FClear.1 mph78%29.95 "Hg10 mi
3:20 AM70 °FClear.2 mph83%29.95 "Hg10 mi
2:50 AM72 °FPassing clouds.3 mph78%29.95 "HgN/A
2:20 AM73 °FClear.5 mph89%29.98 "Hg10 mi
1:50 AM72 °FPassing clouds.3 mph73%29.98 "HgN/A
1:20 AM73 °FClear.1 mph78%29.98 "Hg10 mi
12:50 AM73 °FClear.2 mph83%29.98 "Hg10 mi
12:20 AM73 °FClear.No wind89%29.98 "Hg10 mi
11:50 PM
Tue, Jul 26
75 °FPassing clouds.3 mph83%29.95 "HgN/A
11:20 PM75 °FClear.5 mph83%29.95 "Hg10 mi
10:50 PM75 °FClear.5 mph78%29.95 "Hg10 mi
10:20 PM77 °FClear.5 mph74%29.95 "Hg10 mi
9:50 PM79 °FPassing clouds.3 mph61%29.95 "HgN/A
9:20 PM81 °FPassing clouds.3 mph62%29.95 "HgN/A
8:50 PM82 °FPassing clouds.3 mph58%29.95 "HgN/A
8:20 PM84 °FPassing clouds.6 mph51%29.92 "HgN/A
7:50 PM86 °FPassing clouds.5 mph46%29.95 "HgN/A
7:20 PM84 °FThundershowers. Scattered clouds.3 mph48%29.95 "HgN/A
6:50 PM86 °FScattered clouds.6 mph46%29.95 "HgN/A
6:20 PM84 °FPassing clouds.9 mph51%29.95 "HgN/A
5:50 PM86 °FPassing clouds.12 mph49%29.92 "HgN/A
5:20 PM88 °FPassing clouds.7 mph40%29.92 "HgN/A
4:50 PM88 °FPassing clouds.6 mph40%29.92 "HgN/A
4:20 PM90 °FPassing clouds.7 mph41%29.92 "HgN/A
3:50 PM88 °FPassing clouds.6 mph46%29.92 "HgN/A
3:20 PM90 °FPassing clouds.7 mph43%29.92 "HgN/A
2:50 PM90 °FPassing clouds.8 mph43%29.95 "HgN/A
2:20 PM88 °FPassing clouds.8 mph46%29.95 "HgN/A
1:50 PM88 °FPassing clouds.6 mph46%29.95 "HgN/A
1:20 PM90 °FPassing clouds.6 mph41%29.95 "HgN/A
12:50 PM88 °FPassing clouds.6 mph40%29.95 "HgN/A
12:20 PM86 °FSunny.5 mph46%29.95 "Hg10 mi
11:50 AM84 °FPassing clouds.5 mph48%29.98 "HgN/A
11:20 AM82 °FSunny.3 mph51%29.95 "Hg10 mi
10:50 AM82 °FSunny.1 mph51%29.95 "Hg10 mi
10:20 AM79 °FSunny.2 mph61%29.95 "Hg10 mi
9:50 AM75 °FPassing clouds.3 mph65%29.98 "HgN/A
9:20 AM73 °FSunny.2 mph69%29.95 "Hg10 mi
8:50 AM72 °FPassing clouds.3 mph73%29.95 "HgN/A
8:20 AM70 °FSunny.5 mph78%29.95 "Hg10 mi
7:50 AM68 °FSunny.7 mph83%29.95 "Hg10 mi
7:20 AM68 °FPassing clouds.6 mph83%29.95 "HgN/A
6:50 AM66 °FClear.6 mph88%29.95 "Hg10 mi
6:20 AM66 °FClear.5 mph88%29.95 "Hg10 mi
5:50 AM66 °FClear.2 mph83%29.95 "Hg10 mi
5:20 AM66 °FClear.6 mph83%29.95 "Hg10 mi
Weather by CustomWeather, © 2016

See weather overviewHow to use our weather pages